Flag for U.S.A. Weather past 2 weeks in Santa Rosa, California, U.S.A.

Now
56 °F

Low clouds.


Feels Like: 56 °F
Forecast: 56 / 74 °F
Wind: No wind

Location: Santa Rosa Sonoma County Airport

Current Time: Sep 22, 2014 at 5:38:53 AM

Latest Report: Sep 22, 2014 at 4:53 AM


Visibility: 10 mi

Pressure: 29.97 "Hg

Humidity: 97%

Dew point: 55 °F

Location of Santa RosaLocation

Historic Weather in Santa Rosa — Graph

°F

Santa Rosa temperature yesterday

Maximum temperature yesterday: 77 °F (at 3:53 PM)
Minimum temperature yesterday: 59 °F (at 11:53 PM)
Average temperature yesterday: 65 °F

Past Weeks' High & Low Weather Summary

 TemperatureHumidityPressure
High95 °F (Sep 10, 3:53 PM)100% (Sep 10, 4:53 AM)29.98 "Hg (Sep 10, 4:53 AM)
Low49 °F (Sep 10, 4:53 AM)17% (Sep 11, 2:53 PM)29.71 "Hg (Sep 17, 3:53 PM)
Average64 °F75%29.84 "Hg
* Reported Sep 7 3:53 AM — Sep 22 3:53 AM, Santa Rosa, Weather by CustomWeather, © 2014

Note: Actual official high and low records may vary slightly from our data, if they occured in-between our weather recording intervals... More about our weather records

Advertising

Santa Rosa weather history for previous 24 hours

 ConditionsComfort  
Time TempWeatherWind HumidityBarometerVisibility
3:53 AM
Sep 22
55 °FPassing clouds.3 mph96%29.97 "Hg10 mi
2:53 AM56 °FClear.No wind97%29.97 "Hg10 mi
1:53 AM56 °FClear.No wind93%29.97 "Hg10 mi
12:53 AM58 °FClear.No wind93%29.96 "Hg10 mi
11:53 PM
Sep 21
59 °FClear.No wind93%29.97 "Hg10 mi
10:53 PM60 °FClear.No wind90%29.98 "Hg10 mi
9:53 PM61 °FClear.3 mph87%29.98 "Hg10 mi
8:53 PM62 °FClear.6 mph83%29.97 "Hg10 mi
7:53 PM64 °FSunny.6 mph78%29.96 "Hg10 mi
6:53 PM66 °FPassing clouds.6 mph70%29.95 "Hg10 mi
5:53 PM70 °FSunny.8 mph61%29.94 "Hg10 mi
4:53 PM73 °FSunny.13 mph55%29.92 "Hg10 mi
3:53 PM77 °FSunny.12 mph52%29.92 "Hg10 mi
2:53 PM76 °FScattered clouds.6 mph52%29.93 "Hg10 mi
1:53 PM73 °FSunny.7 mph55%29.94 "Hg10 mi
12:53 PM73 °FSunny.5 mph55%29.96 "Hg10 mi
11:53 AM72 °FSunny.7 mph57%29.97 "Hg10 mi
10:53 AM67 °FOvercast.No wind68%29.98 "Hg10 mi
9:53 AM64 °FOvercast.No wind75%29.98 "Hg10 mi
8:53 AM63 °FOvercast.3 mph78%29.97 "Hg10 mi
7:53 AM61 °FOvercast.No wind81%29.95 "Hg10 mi
6:53 AM61 °FOvercast.3 mph81%29.94 "Hg10 mi
5:53 AM61 °FOvercast.3 mph81%29.92 "Hg10 mi
Weather by CustomWeather, © 2014

See weather overviewHow to use our weather pages